Zurück zum Katalog

FENGYUN 1C DEB

AktivLEO
NORAD 32178·DEBRIS·🇨🇳 China

Gestartet May 10, 1999 von Taiyuan Satellite Launch Center

Loading…

Nächste Überflüge (nächste 24 Stunden)

TLE

AktuellSource: Space-Track

Epoche: Sep 14, 2026, 08:56 UTC

1 32178U 99025CTY 26257.37277648  .00001175  00000-0  51299-3 0  9995
2 32178 100.2895 310.4620 0092211 284.2423  74.8523 14.24112864679255

Verfolge FENGYUN 1C DEB in Echtzeit mit AllMySat

Download on the App Store